Location: Young's Pond
(41.2695°N, 72.7766°W)
Time: 01:52:39
(UTC-05:00)

Daily predictions for brighter satellites

Satellite Brightness Start Highest point End
(mag) Time Altitude Azimuth Time Altitude Azimuth Time Altitude Azimuth
Cosmos 2237 Rocket 3.8 03:54:16 29° ESE 03:54:16 29° ESE 03:57:13 10° SE
SL-16 R/B 4.1 03:53:48 23° NE 03:54:39 24° NE 03:59:09 10° ESE
Cosmos 2297 Rocket 3.3 04:05:02 42° E 04:05:02 42° E 04:09:43 10° NE
Cosmos 2227 Rocket 3.2 04:18:46 39° NE 04:18:46 39° NE 04:22:18 10° NNE
Cosmos 540 Rocket 4.5 04:18:40 43° ESE 04:18:40 43° ESE 04:22:36 10° SE
Cosmos 1725 Rocket 4.4 04:15:58 10° S 04:22:05 62° E 04:28:16 10° NNE
ISS 0.0 04:33:19 13° ENE 04:33:19 13° ENE 04:33:50 10° E
USA 234 4.3 04:31:52 10° E 04:37:42 36° NNE 04:40:03 28° NNW
Cosmos 1980 4.5 04:40:45 40° S 04:40:45 40° S 04:44:20 10° SSE
SL-08 R/B 4.4 04:43:20 66° NNW 04:43:20 66° NNW 04:48:38 10° N
Cosmos 2082 3.8 04:45:41 62° N 04:45:41 62° N 04:50:34 10° NNE
Cosmos 2333 Rocket 3.5 04:50:14 26° SSW 04:50:14 26° SSW 04:52:52 10° S
Ariane Rocket 4.4 04:49:49 10° NNE 04:54:33 37° E 04:59:16 10° SSE
Cosmos 2219 Rocket 4.3 05:11:11 12° SSW 05:11:11 12° SSW 05:11:33 10° SSW
Cosmos 1743 Rocket 3.4 05:09:30 69° NW 05:09:59 80° W 05:14:21 10° S
Cosmos 1328 4.2 05:09:48 25° N 05:11:58 61° E 05:15:54 10° SSE
Cosmos 2233 Rocket 3.9 05:06:26 10° S 05:12:40 87° W 05:19:00 10° N
Cosmos 2058 4.3 05:12:57 10° N 05:16:49 38° ENE 05:20:41 10° SSE
Cosmos 1842 Rocket 3.4 05:15:02 10° S 05:19:22 84° W 05:23:45 10° N
COSMO-SKYMED 1 2.4 05:15:39 10° S 05:19:57 68° WSW 05:21:11 45° NW
CZ-2C R/B 4.4 05:21:05 10° NE 05:24:59 27° E 05:28:51 10° SSE
NOAA 6 4.1 05:21:26 10° N 05:26:28 52° WNW 05:31:29 10° SSW
SeaSat 1 4.3 05:23:53 10° N 05:25:11 15° NNW 05:25:11 15° NNW
Cosmos 968 Rocket 3.4 05:22:20 10° SSW 05:27:36 85° WNW 05:32:54 10° NNE
CSL-04 Rocket 4.0 05:24:03 10° NNE 05:29:21 67° ESE 05:34:35 10° S
BREEZE-M DEB (TANK) 4.1 05:31:43 21° N 05:31:43 21° N 05:33:36 10° NE
Cosmos 2151 2.9 05:29:56 10° N 05:34:10 86° E 05:38:24 10° S
Cosmos 2237 Rocket 3.3 05:36:10 24° WSW 05:36:10 24° WSW 05:39:55 10° SSW
Cosmos 1500 Rocket 3.6 05:34:37 21° NNW 05:37:27 55° W 05:41:47 10° S
USA 229 DEB 3.9 05:33:34 24° NW 05:37:46 53° WSW 05:44:45 10° SSE
USA 229 3.9 05:33:38 24° NW 05:37:52 54° WSW 05:44:52 10° SSE
SL-16 R/B 2.3 05:35:44 23° NW 05:39:05 54° WSW 05:44:34 10° S
Cosmos 2346 Rocket 4.4 05:35:51 10° NNW 05:41:52 58° W 05:47:47 10° S
Cosmos 1703 4.4 05:40:25 10° N 05:44:11 44° E 05:47:56 10° SSE
Cosmos 2297 Rocket 3.0 05:46:57 25° W 05:48:34 29° NW 05:53:26 10° N
Meteor 1-11 4.2 05:45:34 10° NNW 05:51:23 76° W 05:57:11 10° S
NOSS 3-1 (A) 4.3 05:44:02 10° NNW 05:51:38 72° NE 05:59:59 10° SE
Cosmos 220 Rocket 4.4 05:49:08 10° SW 05:53:18 40° WNW 05:57:28 10° N
Cosmos 1340 Rocket 2.6 05:50:02 10° NNW 05:53:58 81° W 05:57:55 10° S
Sich 1 4.3 05:52:54 10° N 05:57:04 42° ENE 06:01:10 10° SSE
Aureole 2 Rocket 4.1 05:57:16 22° W 05:57:40 23° W 06:00:56 10° SSW
Cosmos 1777 Rocket 3.9 05:52:29 10° SSW 05:57:42 87° WNW 06:02:57 10° NNE
SJ-12 4.3 05:55:18 10° NNE 05:59:24 68° ESE 06:03:26 10° S
ATLAS 2AS CENTAUR R/B 4.4 05:52:52 10° NNW 06:00:03 33° NE 06:06:53 10° E
Cosmos 2227 Rocket 3.5 06:00:40 18° WNW 06:01:20 18° NW 06:05:11 10° N
Cosmos 1464 Rocket 4.0 05:55:14 10° S 06:01:35 80° W 06:07:55 10° N
Meteor 1-16 Rocket 4.2 05:56:43 10° SSW 06:02:00 51° WNW 06:07:12 10° N
IRS-1A Rocket 4.4 05:56:06 10° NNE 06:02:03 86° ESE 06:07:52 10° SSW
Cosmos 1271 Rocket 2.8 05:59:40 10° SSW 06:03:24 50° WNW 06:07:08 10° N
IDEFIX/ARIANE 42P 2.9 05:59:11 10° NNE 06:04:28 71° ESE 06:09:43 10° S
Cosmos 1184 Rocket 3.9 06:02:54 10° N 06:06:07 46° ENE 06:09:19 10° SSE
SL-14 R/B 3.9 06:03:06 10° NNW 06:06:51 37° W 06:10:35 10° SSW
ISS -3.1 06:06:00 23° WNW 06:07:47 55° SW 06:10:58 10° SE
OAO 2 Rocket 4.3 06:04:02 13° WSW 06:07:57 37° S 06:12:29 10° ESE
Meteor 1-28 Rocket 4.2 06:05:06 10° SSW 06:08:18 26° W 06:10:38 15° NW
Meteor 1-4 Rocket 3.9 06:09:58 10° WSW 06:12:47 20° WNW 06:15:38 10° NNW
YAOGAN 1 3.0 06:10:35 10° NNE 06:14:54 69° E 06:19:13 10° S
CZ-4 R/B 1.3 06:15:45 10° N 06:19:46 69° WNW 06:23:50 10° SSW
Meteor 2-1 Rocket 4.3 06:14:39 10° SSW 06:20:08 57° WNW 06:25:47 10° N
USA 234 3.3 06:13:43 10° SE 06:20:17 85° SW 06:26:54 10° NW
Cosmos 1943 3.8 06:17:21 10° NNW 06:23:01 60° ENE 06:28:37 10° SE
ERBS 2.4 06:23:54 12° NW 06:26:58 61° SW 06:30:20 10° SSE
Cosmos 1626 2.1 06:23:45 10° NNW 06:27:28 67° W 06:31:10 10° S
Cosmos 1666 Rocket 3.6 06:23:30 10° N 06:27:59 80° W 06:32:26 10° S
Cosmos 923 Rocket 4.0 06:24:16 10° NNW 06:29:28 70° WSW 06:34:40 10° S
Meteor 1-29 3.3 06:27:33 10° SSE 06:31:00 69° ENE 06:34:31 10° N
Ariane Rocket 3.9 06:29:06 10° N 06:33:19 27° WNW 06:37:31 10° WSW
NOSS 3-1 (C) 4.3 06:25:50 10° NW 06:33:19 57° WSW 06:41:27 10° SSE
PSLV R/B 3.7 06:30:57 10° WSW 06:34:18 60° SSE 06:37:36 10° E
Coronas F rocket 0.9 06:33:51 10° N 06:36:15 85° WSW 06:38:38 10° S
Cosmos 2221 3.3 06:32:36 10° SW 06:36:28 31° WNW 06:40:20 10° NNW
Cosmos 1680 Rocket 3.5 06:33:31 10° NNW 06:38:49 76° WSW 06:44:07 10° SSE
SL-8 R/B 3.9 06:34:26 10° WNW 06:39:14 71° NNE 06:44:02 10° ESE
TELKOM 3 3.6 06:37:18 10° W 06:39:38 34° NNW 06:41:38 10° NE
MSX 3.9 06:36:22 10° NNE 06:42:10 86° WNW 06:47:56 10° SSW
Cosmos 1603 4.1 06:37:32 10° NW 06:42:50 44° WSW 06:48:09 10° S
CORIOLIS 4.2 06:37:30 10° N 06:42:54 74° WNW 06:48:19 10° SSW
CZ-4 R/B 4.4 06:38:58 10° N 06:43:06 72° WNW 06:47:11 10° SSW
